Auburn, IN

1:27 AM EDT on June 26, 2017 (GMT -0400)
Auburn

Weather History for KGWB - February, 2013

Change the Weather History Date:

Sunday, February 17, 2013

  Actual Average (KFWA) Record (KFWA)
Temperature  
Mean Temperature 21 °F -  
Max Temperature 30 °F 33 °F 63 °F (2017)
Min Temperature 12 °F 18 °F -12 °F (1973)
Degree Days  
Heating Degree Days 44    
Moisture  
Dew Point 10 °F    
Average Humidity 65    
Maximum Humidity 86    
Minimum Humidity 37    
Precipitation  
Precipitation 0.00 in - - ()
Sea Level Pressure  
Sea Level Pressure 30.15 in    
Wind  
Wind Speed 4 mph (WNW)    
Max Wind Speed 9 mph    
Max Gust Speed -    
Visibility 10 miles    
Events Snow    
Averages and records for this station are not official NWS values.
T = Trace of Precipitation, MM = Missing Value Source: NWS Daily Summary

Daily Weather History Graph

Daily Weather History Graph

Search for Another Location

Airport or City:

Trip Planner

Search our weather history database for the weather conditions in past years. The results will help you decide how hot, cold, wet, or windy it might be!

Date:

Astronomy

Feb. 17, 2013 Rise Set
Actual Time 7:32 AM EST 6:17 PM EST
Civil Twilight 7:03 AM EST 6:45 PM EST
Nautical Twilight 6:31 AM EST 7:17 PM EST
Astronomical Twilight 5:59 AM EST 7:49 PM EST
Moon 11:19 AM EST (2/17) 1:16 AM EST (2/17)
Length of Visible Light 11h 41m
Length of Day
10h 45m
Waxing Crescent, 49% of the Moon is Illuminated
Feb 17
Waxing Crescent
Feb 17
First Quarter
Feb 25
Full
Mar 4
Last Quarter
Mar 11
New

Hourly Weather History & Observations

Time (EST) Temp. Windchill Dew Point Humidity Pressure Visibility Wind Dir Wind Speed Gust Speed Precip Events Conditions
12:15 AM 12.2 °F - 8.6 °F 85% 30.09 in 10.0 mi Calm Calm - N/A   Clear
12:35 AM 12.2 °F 4.3 °F 8.6 °F 85% 30.09 in 10.0 mi West 4.6 mph - N/A   Clear
12:55 AM 12.2 °F 4.3 °F 8.6 °F 85% 30.09 in 10.0 mi West 4.6 mph - N/A   Clear
1:15 AM 14.0 °F 5.1 °F 8.6 °F 79% 30.08 in 10.0 mi West 5.8 mph - N/A   Clear
1:35 AM 14.0 °F 5.1 °F 8.6 °F 79% 30.09 in 10.0 mi West 5.8 mph - N/A   Clear
1:55 AM 14.0 °F 5.1 °F 8.6 °F 79% 30.09 in 10.0 mi West 5.8 mph - N/A   Clear
2:15 AM 12.2 °F 4.3 °F 8.6 °F 85% 30.09 in 10.0 mi West 4.6 mph - N/A   Clear
2:35 AM 14.0 °F 8.2 °F 10.4 °F 86% 30.09 in 10.0 mi WNW 3.5 mph - N/A   Mostly Cloudy
2:55 AM 14.0 °F 6.5 °F 10.4 °F 86% 30.10 in 10.0 mi WNW 4.6 mph - N/A   Overcast
3:15 AM 17.6 °F 7.3 °F 12.2 °F 79% 30.09 in 10.0 mi WNW 8.1 mph - N/A Snow Light Snow
3:35 AM 17.6 °F 8.2 °F 12.2 °F 79% 30.09 in 10.0 mi WNW 6.9 mph - N/A Snow Light Snow
3:55 AM 17.6 °F 8.2 °F 12.2 °F 79% 30.09 in 10.0 mi NW 6.9 mph - N/A Snow Light Snow
4:15 AM 17.6 °F 6.4 °F 10.4 °F 73% 30.10 in 10.0 mi NW 9.2 mph - N/A Snow Light Snow
4:35 AM 17.6 °F 6.4 °F 10.4 °F 73% 30.11 in 10.0 mi WNW 9.2 mph - N/A   Overcast
4:55 AM 17.6 °F 8.2 °F 10.4 °F 73% 30.11 in 10.0 mi NNW 6.9 mph - N/A Snow Light Snow
5:15 AM 17.6 °F 8.2 °F 10.4 °F 73% 30.12 in 10.0 mi NW 6.9 mph - N/A   Overcast
5:35 AM 15.8 °F 6.1 °F 10.4 °F 79% 30.12 in 10.0 mi WNW 6.9 mph - N/A Snow Light Snow
5:55 AM 15.8 °F 6.1 °F 10.4 °F 79% 30.13 in 10.0 mi NW 6.9 mph - N/A Snow Light Snow
6:15 AM 14.0 °F 6.5 °F 10.4 °F 86% 30.13 in 10.0 mi NNW 4.6 mph - N/A   Mostly Cloudy
6:35 AM 14.0 °F 6.5 °F 10.4 °F 86% 30.14 in 10.0 mi NW 4.6 mph - N/A   Scattered Clouds
6:55 AM 12.2 °F 4.3 °F 8.6 °F 85% 30.15 in 10.0 mi WNW 4.6 mph - N/A   Scattered Clouds
7:15 AM 12.2 °F 4.3 °F 8.6 °F 85% 30.15 in 10.0 mi WNW 4.6 mph - N/A   Clear
7:35 AM 12.2 °F - 8.6 °F 85% 30.15 in 10.0 mi Calm Calm - N/A   Clear
7:55 AM 12.2 °F - 8.6 °F 85% 30.16 in 10.0 mi Calm Calm - N/A   Clear
8:15 AM 14.0 °F 8.2 °F 10.4 °F 86% 30.17 in 10.0 mi West 3.5 mph - N/A   Clear
8:35 AM 15.8 °F 10.2 °F 10.4 °F 79% 30.17 in 10.0 mi WNW 3.5 mph - N/A   Clear
8:55 AM 17.6 °F 10.7 °F 12.2 °F 79% 30.18 in 10.0 mi WNW 4.6 mph - N/A   Clear
9:15 AM 17.6 °F 8.2 °F 12.2 °F 79% 30.18 in 10.0 mi WNW 6.9 mph - N/A   Clear
9:35 AM 19.4 °F 12.8 °F 12.2 °F 74% 30.18 in 10.0 mi WNW 4.6 mph - N/A   Clear
9:55 AM 19.4 °F 14.3 °F 12.2 °F 74% 30.19 in 10.0 mi NNW 3.5 mph - N/A   Clear
10:15 AM 21.2 °F 13.6 °F 12.2 °F 68% 30.19 in 10.0 mi WNW 5.8 mph - N/A   Clear
10:35 AM 21.2 °F 14.9 °F 10.4 °F 63% 30.19 in 10.0 mi West 4.6 mph - N/A   Clear
10:55 AM 23.0 °F 15.8 °F 8.6 °F 54% 30.20 in 10.0 mi WNW 5.8 mph - N/A   Clear
11:15 AM 23.0 °F 17.0 °F 10.4 °F 59% 30.20 in 10.0 mi NW 4.6 mph - N/A   Clear
11:35 AM 24.8 °F - 6.8 °F 46% 30.20 in 10.0 mi Calm Calm - N/A   Mostly Cloudy
11:55 AM 24.8 °F 20.5 °F 6.8 °F 46% 30.20 in 10.0 mi WNW 3.5 mph - N/A   Mostly Cloudy
12:15 PM 24.8 °F - 5.0 °F 43% 30.20 in 10.0 mi Calm Calm - N/A   Scattered Clouds
12:35 PM 26.6 °F 18.2 °F 8.6 °F 47% 30.19 in 10.0 mi West 8.1 mph - N/A   Mostly Cloudy
12:55 PM 26.6 °F 17.5 °F 8.6 °F 47% 30.19 in 10.0 mi WNW 9.2 mph - N/A   Mostly Cloudy
1:15 PM 26.6 °F 20.0 °F 8.6 °F 47% 30.19 in 10.0 mi WSW 5.8 mph - N/A   Scattered Clouds
1:55 PM 26.6 °F 20.0 °F 5.0 °F 40% 30.18 in 10.0 mi NW 5.8 mph - N/A   Scattered Clouds
2:15 PM 28.4 °F 20.4 °F 5.0 °F 37% 30.18 in 10.0 mi West 8.1 mph - N/A   Scattered Clouds
2:35 PM 28.4 °F 20.4 °F 6.8 °F 40% 30.17 in 10.0 mi WNW 8.1 mph - N/A   Scattered Clouds
2:55 PM 28.4 °F 23.3 °F 6.8 °F 40% 30.17 in 10.0 mi West 4.6 mph - N/A   Scattered Clouds
3:15 PM 28.4 °F 20.4 °F 8.6 °F 43% 30.17 in 10.0 mi NW 8.1 mph - N/A   Scattered Clouds
3:35 PM 26.6 °F 22.6 °F 8.6 °F 47% 30.17 in 10.0 mi West 3.5 mph - N/A   Clear
3:55 PM 30.2 °F 26.7 °F 8.6 °F 40% 30.17 in 10.0 mi NW 3.5 mph - N/A   Mostly Cloudy
4:15 PM 30.2 °F - 8.6 °F 40% 30.16 in 10.0 mi Calm Calm - N/A   Mostly Cloudy
4:35 PM 30.2 °F 21.9 °F 8.6 °F 40% 30.16 in 10.0 mi WSW 9.2 mph - N/A   Mostly Cloudy
4:55 PM 28.4 °F 23.3 °F 8.6 °F 43% 30.16 in 10.0 mi SSW 4.6 mph - N/A   Scattered Clouds
5:15 PM 28.4 °F 24.6 °F 8.6 °F 43% 30.16 in 10.0 mi WSW 3.5 mph - N/A   Scattered Clouds
5:35 PM 28.4 °F 21.2 °F 8.6 °F 43% 30.16 in 10.0 mi SW 6.9 mph - N/A   Clear
5:55 PM 28.4 °F 24.6 °F 8.6 °F 43% 30.17 in 10.0 mi SSW 3.5 mph - N/A   Clear
6:15 PM 26.6 °F 22.6 °F 10.4 °F 51% 30.17 in 10.0 mi SW 3.5 mph - N/A   Clear
6:35 PM 26.6 °F - 10.4 °F 51% 30.17 in 10.0 mi Calm Calm - N/A   Clear
6:55 PM 24.8 °F - 12.2 °F 59% 30.17 in 10.0 mi Calm Calm - N/A   Clear
7:15 PM 23.0 °F - 12.2 °F 63% 30.16 in 10.0 mi Calm Calm - N/A   Clear
7:35 PM 23.0 °F - 10.4 °F 59% 30.16 in 10.0 mi Calm Calm - N/A   Clear
7:55 PM 21.2 °F - 12.2 °F 68% 30.16 in 10.0 mi Calm Calm - N/A   Clear
8:15 PM 21.2 °F - 12.2 °F 68% 30.16 in 10.0 mi Calm Calm - N/A   Clear
8:35 PM 21.2 °F - 14.0 °F 74% 30.16 in 10.0 mi Calm Calm - N/A   Clear
8:55 PM 23.0 °F - 12.2 °F 63% 30.17 in 10.0 mi Calm Calm - N/A   Clear
9:15 PM 21.2 °F - 12.2 °F 68% 30.17 in 10.0 mi Calm Calm - N/A   Clear
9:35 PM 21.2 °F - 12.2 °F 68% 30.16 in 10.0 mi Calm Calm - N/A   Clear
9:55 PM 21.2 °F - 12.2 °F 68% 30.17 in 10.0 mi Calm Calm - N/A   Clear
10:15 PM 21.2 °F - 12.2 °F 68% 30.16 in 10.0 mi Calm Calm - N/A   Clear
10:35 PM 23.0 °F - 14.0 °F 68% 30.16 in 10.0 mi Calm Calm - N/A   Clear
10:55 PM 23.0 °F - 14.0 °F 68% 30.16 in 10.0 mi Calm Calm - N/A   Clear
11:15 PM 23.0 °F - 14.0 °F 68% 30.16 in 10.0 mi Calm Calm - N/A   Clear
11:35 PM 23.0 °F - 14.0 °F 68% 30.16 in 10.0 mi Calm Calm - N/A   Clear
11:55 PM 23.0 °F 18.4 °F 14.0 °F 68% 30.15 in 10.0 mi ESE 3.5 mph - N/A   Clear